Regional Weather Roundup
Issued by NWS

Home | Current Version | Previous Version | Text Only | Print | Product List | Glossary Off
Versions: 1 2 3 4 5 6 7 8 9 10 11 12 13 14 15 16 17 18 19 20 21 22 23 24 25 26 27 28 29 30 31 32 33 34 35 36 37 38 39 40 41 42 43 44 45 46 47 48 49 50

161
ASUS43 KLOT 280208
RWRIL

ILLINOIS REGIONAL WEATHER ROUNDUP
NATIONAL WEATHER SERVICE CHICAGO/ROMEOVILLE IL
900 PM CDT SAT AUG 27 2016

NOTE: "FAIR" INDICATES FEW OR NO CLOUDS BELOW 12,000 FEET WITH NO
SIGNIFICANT WEATHER AND/OR OBSTRUCTIONS TO VISIBILITY.

* THESE STATIONS ARE NOT UNDER NWS QUALITY CONTROL. THEY ALSO MAY NOT
  REPORT WEATHER SUCH AS PRECIPITATION OR FOG.

ILZ001-002-007-009-015-016-024-280300-
NORTHWEST ILLINOIS

CITY           SKY/WX    TMP DP  RH WIND       PRES   REMARKS
MOLINE         PTCLDY    76  72  87 E3        30.04R
STERLING*      MOCLDY    75  72  90 CALM      30.06R
SAVANNA*       CLEAR     72  70  93 CALM      30.05R
$$

ILZ003-004-008-010-011-017-018-280300-
NORTH CENTRAL ILLINOIS

CITY           SKY/WX    TMP DP  RH WIND       PRES   REMARKS
ROCKFORD       PTCLDY    75  69  81 S5        30.07R
FREEPORT*      CLEAR     71  67  87 W3        30.08R
ROCHELLE*      LGT RAIN  74  73  94 CALM      30.08R
DE KALB*       CLOUDY    75  73  92 CALM      30.09R
$$

ILZ005-006-012>014-019>023-280300-
NORTHEAST ILLINOIS

CITY           SKY/WX    TMP DP  RH WIND       PRES   REMARKS
CHICAGO-OHARE  CLOUDY    77  70  79 W5        30.06R
CHICAGO-MIDWAY MOCLDY    81  71  71 SW6       30.06R HX  85
AURORA         CLOUDY    76  71  85 SW5       30.07R
LANSING*       PTCLDY    74  73  95 S5        30.07R
JOLIET*        CLOUDY    75  74  95 CALM      30.07R
WAUKEGAN       CLOUDY    75  72  90 SW9       30.06R
DUPAGE AIRPORT CLOUDY    77  70  79 SW7       30.06R
KANKAKEE*      CLOUDY    77  74  91 S6        30.09R
WHEELING       MOCLDY    79  70  74 SW3       30.08R HX  82
MORRIS*        CLOUDY    74  73  93 CALM      30.06R
ROMEOVILLE*    CLOUDY    74  74  98 CALM      30.07R
NORTHERLY ISL    N/A     81  69  67 SW6         N/A  HX  84
$$

LMZ740>746-280300-
SOUTHERN LAKE MICHIGAN

STATION/POSITION SKY/WX   TEMP    WIND        PRES    VSBY  WAVE
                          AIR SEA DIR/SP/G                  HT/PER
                          (F)     (DEG/KT/KT) (MB)    (MI)  (FT/S)
SOUTHERN BUOY              76 75  150/  8/ 10 1017.0R         1/ 3
WILMETTE HARBOR            72 70  310/  2/  4   N/A           1/ 3
HARRISON CRIB              83     220/ 12/ 14   N/A
BURNHAM HARBOR             81     230/  3/  7   N/A
CALUMET HARBOR             81                 1016.8R
BURNS HARBOR               80     190/  8/ 11 1017.9R
MICHIGAN CITY              80     160/  9/ 11   N/A
MICHIGAN CITY 6N           78 76  180/  6/  8   N/A           1
ST. JOSEPH                 78 76  170/  8/ 10 1017.8R         1
$$

ILZ025>027-034>036-040-047-049-050-058-095>099-280300-
WEST-CENTRAL ILLINOIS

CITY           SKY/WX    TMP DP  RH WIND       PRES   REMARKS
QUINCY         PTCLDY    80  75  84 S6        30.05R HX  85
GALESBURG*     PTCLDY    77  73  87 SE3       30.06R
MACOMB*        MOCLDY    74  73  94 S3        30.07R
JACKSONVILLE*  CLOUDY    78  72  82 SE5       30.06R
PITTSFIELD*    MOCLDY    78  75  89 CALM      30.07R HX  81
$$

ILZ028>032-037-038-041>044-048-051>054-059>061-280300-
CENTRAL ILLINOIS

CITY           SKY/WX    TMP DP  RH WIND       PRES   REMARKS
PONTIAC        CLOUDY    77  75  95 SE5       30.09R
BLOOMINGTON    CLOUDY    75  69  81 S9        30.10R
DECATUR        CLOUDY    74  65  73 NE3       30.11R THUNDER
PEORIA         CLOUDY    76  76 100 CALM      30.07R
LACON*         MOCLDY    75  73  94 CALM      30.05R
LINCOLN*       CLOUDY    76  74  92 CALM      30.08R
SPRINGFIELD    CLOUDY    79  73  82 S6        30.07R HX  82
TAYLORVILLE    CLOUDY    77  74  91 SE6       30.09R
$$

ILZ033-039-045-046-055>057-062-063-280300-
EAST-CENTRAL ILLINOIS

CITY           SKY/WX    TMP DP  RH WIND       PRES   REMARKS
CHAMPAIGN      PTCLDY    72  68  87 S6        30.10S
RANTOUL*       LGT RAIN  78  75  91 SW6       30.10R HX  81
MATTOON        MOCLDY    77  72  84 CALM      30.10R
PARIS*         CLEAR     73  73  99 CALM      30.12R
$$

ILZ079-100>102-280300-
SOUTHWEST ILLINOIS

CITY           SKY/WX    TMP DP  RH WIND       PRES   REMARKS
ALTON          CLEAR     70  68  94 E7        30.06R
BELLEVILLE     CLEAR     79  74  86 E2        30.05R HX  82
CAHOKIA*       CLEAR     79  71  76 NE3       30.05R HX  82
SPARTA*        CLEAR     75  73  92 CALM      30.08R
$$

ILZ064>066-069>071-074>076-080>082-084>086-088>090-092>094-280300-
SOUTH-CENTRAL ILLINOIS

CITY           SKY/WX    TMP DP  RH WIND       PRES   REMARKS
CARBONDALE     CLEAR     76  73  91 CALM      30.06R
CAIRO*         CLEAR     75  74  96 CALM      30.05R
EFFINGHAM*     CLEAR     76  76 100 CALM      30.11R
MARION         CLEAR     77  75  94 CALM      30.07R
MT. VERNON     CLEAR     77  70  78 CALM      30.08R
CENTRALIA*     CLEAR     74  74  98 CALM      30.07R
SALEM*         CLEAR     78  74  88 CALM      30.08R HX  81
METROPOLIS*    PTCLDY    78  76  95 CALM      30.06R
$$

ILZ067-068-072-073-078-083-087-091-280300-
SOUTHEAST ILLINOIS

CITY           SKY/WX    TMP DP  RH WIND       PRES   REMARKS
LAWRENCEVILLE  MOCLDY    78  76  93 NE3       30.10R HX  81
FLORA*         MOCLDY    80  75  86 NE3       30.09R HX  85
FAIRFIELD*     PTCLDY    77  75  92 CALM      30.07R
HARRISBURG*    PTCLDY    78  76  95 CALM      30.07R HX  80
ROBINSON*      CLOUDY    73  72  98 CALM      30.11R
CARMI*         CLOUDY    78  76  96 E6        30.07R
$$

ABBREVIATIONS USED IN REMARKS
   TC - TEMPERATURE IN CELSIUS
  WCI - WIND CHILL INDEX
   HX - HEAT INDEX
  VSB - VISIBILITY
$$





USA.gov is the U.S. government's official web portal to all federal, state and local government web resources and services.